OPS 6630 (2)

Satellite information

Favourite Embed

Satellite Type and Status

PAYLOADIN ORBIT

Key statistics

Satellite OPS 6630 (2) at a glance.

Uptime

19027

Days in orbit

Revolutions

≈ 12.6

Per day

Orbit

SSO

Sun Synchronous Orbit

Inclination

96.9

Latest

Satellite identification and parameters

Extended collection of information and parameters for OPS 6630 (2).

Object identification

Identified? True

Debris? False

Object name: OPS 6630 (2)

International designator: 1973-088D

Object number (NORAD): 6938

Object ID (CCSDS): 6938

Country: UNITED STATES OF AMERICA (US)

Current information (Y/N): Y

RCS size: MEDIUM

Orbital parameters

Period: 114.54 minutes

Inclination: 96.9358 deg

SMA: 7812.647 km

Apoapsis: 1455.826 km

Periapsis: 1413.198 km

RAAN: 125.8369 deg

Eccentricy: 0.00272812

Argument of periapsis: 85.867 deg

Mean anomaly: 339.0946 deg

Mean motion: 12.57203205 rev/day

Mean motion (dot): 0.00000017 rev/day2

B* drag term: 0.00021407222 1/REarth

Two-line elements (TLE)

Creation date: Dec. 12, 2025, 10:14 a.m.

Reference frame: TEME

Reference center: EARTH

Epoch: Dec. 12, 2025, 6:37 a.m. UTC

TLE line 0: 0 OPS 6630 (2)

TLE line 1: 1 06938U 73088D 25346.27636413 .00000017 00000-0 21407-3 0 9999

TLE line 2: 2 06938 96.9358 125.8369 0027281 85.8670 339.0946 12.57203205389658

Live tracking on map

Real-time ground track for satellite OPS 6630 (2).

In-orbit conjunctions

There are no conjunctions computed for OPS 6630 (2), at the moment. Check back to stay up to date, as we update our databases every day.

Go to all conjunctions

Associated space launch

Large reconnaissance satellite equipped with four return capsules.

OPS 6630 (2) was lifted into orbit during the mission ‘Titan IIID | KH-9 7’, on board a Titan IIID space rocket.

The launch took place on Nov. 10, 1973, 8:12 p.m. from Space Launch Complex 4E.

For more information about the launch, click the button.

Launch to space Titan IIID | KH-9 7
Titan IIID | KH-9 7

Agency: N/A

Status: Launch Successful

Launch date: Nov. 10, 1973, 8:12 p.m. UTC

Rocket: Titan IIID

Launch pad: Space Launch Complex 4E

Location: Vandenberg SFB, CA, USA

...

Latest news about this satellite

There are no fresh news available about this satellite. Check back as we update our databases every day.


Newsletter sign-up

Weekly statistics, charts and insights to help you stay on top of the space industry.